This is the latest recevied weather packets stored in our database for station/object W4TJP. If no packets are shown the sender has not sent any weather packets the latest 10 day(s).
| Time | Temp. | Humidity | Pressure | Rain* | Wind** | Luminosity | Snow |
|---|---|---|---|---|---|---|---|
| 1777468113 | 16.11° C | 98% | 1012.4 hPa | 0 mm | - | 50 W/m² | - |
| 1777467810 | 16.11° C | 99% | 1012.4 hPa | 0 mm | - | 68 W/m² | - |
| 1777467505 | 15.56° C | 99% | 1012.4 hPa | 0 mm | - | 55 W/m² | - |
| 1777467200 | 15.56° C | 99% | 1012.4 hPa | 0 mm | - | 58 W/m² | - |
| 1777466898 | 15.56° C | 99% | 1012.5 hPa | 0 mm | - | 73 W/m² | - |
| 1777466595 | 15.56° C | 99% | 1012.5 hPa | 0 mm | - | 76 W/m² | - |
| 1777466292 | 15.56° C | 99% | 1012.5 hPa | 0 mm | - | 77 W/m² | - |
| 1777465988 | 15.56° C | 99% | 1012.5 hPa | 0 mm | - | 81 W/m² | - |
| 1777465684 | 15.56° C | 99% | 1012.5 hPa | 0 mm | - | 105 W/m² | - |
| 1777465380 | 15.56° C | 99% | 1012.5 hPa | 0 mm | - | 52 W/m² | - |
| 1777465078 | 15.56° C | 99% | 1012.7 hPa | 0 mm | - | 48 W/m² | - |
| 1777464775 | 15° C | 99% | 1012.5 hPa | 0 mm | - | 41 W/m² | - |
| 1777464470 | 15° C | 99% | 1012.3 hPa | 0 mm | - | 42 W/m² | - |
| 1777464166 | 15° C | 99% | 1012.6 hPa | 0 mm | - | 31 W/m² | - |
| 1777463866 | 15° C | 99% | 1012.5 hPa | 0 mm | - | 24 W/m² | - |
| 1777463562 | 15° C | 99% | 1012.6 hPa | 0 mm | - | 19 W/m² | - |
| 1777463257 | 15° C | 99% | 1012.5 hPa | 0 mm | - | 16 W/m² | - |
| 1777462953 | 15° C | 99% | 1012.3 hPa | 0 mm | - | 13 W/m² | - |
| 1777462649 | 15° C | 99% | 1012.4 hPa | 0 mm | - | 10 W/m² | - |
| 1777462344 | 15° C | 99% | 1012.4 hPa | 0 mm | - | 11 W/m² | - |
| 1777462041 | 15° C | 99% | 1012.4 hPa | 0 mm | - | 10 W/m² | - |
| 1777461738 | 15° C | 99% | 1012.4 hPa | 0 mm | - | 4 W/m² | - |
| 1777461433 | 15° C | 99% | 1012.3 hPa | 0 mm | - | 2 W/m² | - |
| 1777461130 | 15° C | 99% | 1012.2 hPa | 0 mm | - | 2 W/m² | - |
| 1777460825 | 15° C | 99% | 1012.2 hPa | 0 mm | - | 2 W/m² | - |
* Rain latest hour (hover to see other rain measurements)
** Current wind speed in m/s (hover to see current wind gust speed)